Wind_Speed
7 7 6 6 6 6 6 7 7 7 8 8 9 10 10 11 11 11 11 11 10 10 10 10 10 11 11 11 12 12 13 13 13 14 14 15 15 15 16 16 16 17 17
6 6 6 6 6 6 6 7 7 8 9 9 10 10 11 11 11 11 11 11 11 11 11 11 11 11 12 12 13 13 14 14 14 15 15 16 17 17 17 18 18 19 19
6 6 6 6 6 6 7 7 8 9 10 10 10 10 11 11 11 11 11 11 11 12 12 12 12 12 13 13 14 15 15 16 16 17 18 18 19 19 20 20 21 21 21
6 6 6 6 7 7 8 9 9 10 10 11 11 11 11 11 11 11 11 11 12 12 12 12 13 13 14 14 15 16 17 17 18 19 20 21 21 22 23 23 24 24 25
6 7 7 8 8 9 9 10 10 11 11 11 11 11 10 10 10 11 11 11 12 13 13 13 14 14 15 15 16 17 18 18 19 20 21 22 23 24 25 26 26 27 28
8 8 9 9 10 10 11 11 11 11 11 11 11 10 10 11 11 11 12 13 13 14 14 15 15 15 16 16 17 18 18 19 20 21 21 22 23 24 25 26 27 28 29
11 11 11 12 12 12 12 12 12 12 11 11 10 10 11 11 12 12 13 13 13 14 14 15 15 16 16 17 17 18 19 20 20 21 22 23 23 24 25 26 27 28 29
14 13 13 13 14 14 14 13 13 13 12 11 11 11 12 12 12 12 13 13 13 13 14 14 15 15 16 17 17 18 19 20 21 22 23 24 25 26 27 27 28 28 29
16 15 15 14 15 15 14 14 14 13 13 13 13 12 12 12 12 12 12 13 13 13 13 14 15 15 16 17 17 18 19 20 21 23 24 25 26 28 29 30 31 31 32
17 17 16 16 16 16 16 15 15 15 14 14 14 13 13 13 13 13 13 13 13 14 14 15 15 16 16 17 18 19 20 21 22 24 25 26 27 29 30 31 32 33 34
17 18 17 17 17 17 17 16 16 16 16 15 15 15 15 15 14 14 14 15 15 15 16 16 17 17 18 19 20 20 21 22 23 25 26 27 28 30 31 33 34 35 36
16 17 18 18 18 18 18 18 18 17 17 17 17 17 17 17 17 17 17 17 17 18 18 19 19 20 21 21 22 23 25 25 26 27 28 29 30 31 33 34 36 37 38
16 18 19 19 18 18 19 19 19 20 20 20 20 20 20 21 20 20 20 21 21 21 22 22 23 24 24 25 26 27 28 29 30 31 32 33 34 35 36 37 38 39 40
17 18 19 19 19 20 20 21 21 22 23 23 23 23 24 24 24 24 25 25 25 26 26 27 27 28 29 30 31 32 33 34 35 36 36 37 38 39 40 41 42 42 43
18 19 20 21 21 22 22 23 24 25 26 27 27 27 28 28 29 29 29 29 30 30 30 31 32 32 33 34 35 36 37 37 38 40 41 41 43 44 45 45 46 47 47
21 21 21 22 23 24 25 26 27 28 29 30 30 31 31 32 33 33 34 34 35 35 35 35 36 37 37 38 39 40 41 41 42 43 44 45 47 48 49 50 51 51 51
23 24 24 24 25 26 27 29 30 31 32 32 33 34 35 35 37 37 38 39 40 40 40 40 41 41 42 43 44 44 45 45 46 47 48 49 50 51 52 53 55 55 56
24 25 26 26 27 28 29 31 32 33 34 35 36 37 38 39 41 41 42 43 44 45 45 45 45 46 47 47 48 49 49 49 50 51 52 53 54 55 56 57 58 59 59
25 26 27 28 29 30 31 32 33 35 36 37 39 40 42 44 45 46 46 47 48 49 49 50 50 51 51 52 53 53 53 53 54 55 55 57 57 58 59 60 61 61 61
24 25 27 28 29 31 32 33 35 36 38 39 41 42 44 46 47 49 49 50 52 53 53 54 55 55 55 57 58 57 57 57 58 58 59 60 60 61 62 62 63 63 63
24 25 27 28 30 31 33 34 35 36 38 39 41 43 44 46 48 50 51 53 54 55 56 57 58 58 59 61 61 61 60 61 60 61 62 63 63 63 63 64 64 64 64
25 26 27 29 30 32 34 35 36 37 38 39 41 43 45 48 50 52 53 55 56 57 58 59 60 61 62 63 64 65 64 63 62 64 65 65 65 65 65 65 65 65 64
27 28 29 30 31 33 34 36 37 39 40 41 43 45 47 49 51 52 54 56 57 59 60 61 62 64 64 65 66 67 67 66 66 65 65 65 66 66 66 66 66 65 64
29 30 31 32 33 35 36 37 38 40 41 43 45 46 48 50 51 53 55 57 58 60 61 62 64 66 67 67 68 68 69 70 70 69 66 66 66 66 66 66 66 65 65
31 32 33 34 34 35 36 38 39 41 42 44 46 48 49 51 53 54 56 58 60 61 62 64 66 67 68 69 69 70 70 71 71 71 69 67 67 66 66 66 65 65 65
33 34 34 35 36 37 38 39 41 42 44 45 47 49 50 52 54 56 58 60 61 63 64 65 67 68 69 69 70 71 71 71 71 72 72 70 68 67 67 66 65 64 64
Wind_Direction
230 230 232 235 237 241 245 250 253 256 260 265 268 269 270 270 270 269 269 268 268 267 266 263 260 257 257 259 259 258 257 256 256 257 257 257 256 255 253 251 250 249 248
221 222 223 226 232 238 246 252 257 261 263 265 266 267 269 270 271 270 271 271 271 270 269 268 266 264 262 261 260 260 260 259 258 258 258 258 257 257 257 256 255 253 253
217 223 226 230 236 245 254 260 264 267 268 269 269 269 270 271 271 271 271 273 273 274 274 273 272 271 269 266 264 263 262 262 262 261 261 260 260 259 259 259 258 257 256
229 233 237 241 248 255 262 268 271 272 273 273 272 272 272 272 272 272 272 273 275 276 277 277 276 275 273 270 268 267 265 264 264 263 263 263 263 262 261 261 260 260 259
246 247 251 255 259 264 269 273 275 275 275 275 274 274 274 274 275 275 274 275 277 279 280 279 278 277 276 274 272 270 269 268 266 265 264 264 263 263 263 262 262 261 260
260 259 262 265 269 272 275 276 276 276 276 274 274 273 274 275 276 276 277 278 280 281 282 282 281 280 280 278 277 275 274 273 271 270 268 267 266 265 264 264 263 263 262
270 268 269 271 274 277 278 277 276 276 275 273 272 272 274 275 275 276 277 279 281 282 283 283 283 282 282 282 281 281 280 278 277 275 274 272 270 268 267 266 265 264 264
274 273 273 275 277 278 278 277 276 274 272 270 270 271 273 274 275 277 279 281 283 285 286 287 288 288 288 288 288 287 286 284 283 281 279 277 275 273 272 270 268 267 265
273 274 274 274 276 276 276 275 274 271 269 268 268 269 271 273 276 279 281 284 286 288 290 292 293 294 294 295 294 294 293 291 290 288 285 283 280 278 276 274 272 270 268
272 273 273 273 273 272 272 272 270 267 266 265 266 267 269 272 275 278 281 285 287 290 292 294 295 297 298 298 299 299 299 298 297 295 293 290 287 285 282 279 277 275 273
269 271 272 270 269 268 268 269 267 264 264 263 264 266 268 270 273 276 280 282 285 287 289 291 293 295 296 297 299 299 300 300 300 300 299 297 295 292 289 286 283 280 278
271 271 270 269 267 267 266 266 264 262 262 262 263 265 267 268 271 274 276 278 280 282 285 287 289 290 292 293 294 295 296 297 298 298 299 299 298 296 294 291 288 285 282
273 270 269 270 269 268 266 265 263 262 262 262 262 264 266 267 269 271 273 275 277 279 281 283 285 287 288 289 290 292 293 294 295 295 296 296 296 296 295 293 291 288 284
273 271 271 272 270 268 266 265 264 263 262 262 262 263 264 266 268 269 271 273 275 277 279 281 283 284 286 287 288 289 290 292 293 293 294 294 295 295 295 294 292 290 287
274 272 272 272 271 269 267 265 264 263 262 262 263 263 263 265 267 268 270 271 273 275 277 279 281 282 283 285 286 287 289 290 291 291 292 292 293 293 293 293 293 291 289
276 273 271 270 270 269 267 266 265 264 264 263 263 263 264 264 266 267 269 270 272 274 275 277 279 280 282 283 284 286 287 288 289 290 290 291 291 292 292 292 292 291 290
277 275 272 270 269 268 267 266 266 266 266 265 264 265 265 265 265 266 268 269 271 273 274 276 277 279 280 282 283 284 286 287 288 288 289 289 289 290 290 291 291 290 289
279 277 275 273 270 268 266 266 266 266 267 266 265 265 265 265 265 266 267 268 270 272 273 275 276 278 279 281 282 283 284 285 286 287 288 288 288 289 289 289 289 289 288
281 280 278 276 274 271 269 268 267 266 265 265 265 265 265 265 266 266 267 268 269 271 272 274 275 277 278 280 280 282 283 284 285 286 287 287 288 289 289 289 288 288 286
283 282 280 279 277 275 273 271 269 268 266 266 266 266 267 268 268 269 269 270 270 271 272 273 274 276 277 278 279 281 282 283 284 286 286 287 288 288 288 288 288 287 285
286 285 283 281 279 278 277 275 273 272 271 270 270 269 269 269 269 270 270 270 271 272 273 274 275 276 277 278 279 280 281 283 284 285 285 287 288 288 288 288 287 286 285
288 286 284 282 281 279 278 278 277 275 274 273 272 271 270 269 269 270 271 272 273 274 275 275 276 276 277 278 280 281 282 282 283 284 285 287 287 287 287 287 287 285 284
289 287 285 283 282 280 280 280 279 278 277 275 274 273 273 274 274 274 274 275 275 276 276 277 277 278 279 279 281 282 283 283 282 283 285 285 286 286 286 286 285 284 283
290 289 287 285 284 283 282 281 281 280 279 278 278 277 277 276 276 275 275 276 276 277 278 278 279 279 280 280 281 282 283 284 284 284 284 284 284 284 284 284 284 283 282
291 290 289 288 287 286 286 285 284 283 282 281 280 279 278 278 277 277 276 276 276 277 277 278 279 279 279 280 281 282 282 283 284 284 284 284 283 284 284 283 283 282 281
294 293 292 292 291 290 289 288 287 286 285 284 282 281 280 280 279 279 278 278 278 278 278 278 278 278 279 280 280 281 282 283 283 283 284 284 283 283 283 283 282 282 281
Height
5879 5879 5879 5879 5879 5879 5879 5879 5879 5880 5880 5879 5879 5879 5879 5879 5879 5879 5878 5878 5878 5878 5878 5878 5878 5878 5878 5878 5878 5878 5878 5878 5878 5878 5878 5878 5878 5878 5879 5879 5880 5880 5880
5878 5878 5878 5878 5878 5878 5878 5878 5878 5878 5878 5878 5878 5877 5877 5877 5877 5876 5876 5876 5875 5875 5875 5875 5875 5875 5876 5876 5875 5875 5875 5875 5876 5876 5876 5876 5876 5876 5876 5876 5876 5877 5877
5876 5876 5876 5876 5876 5876 5876 5876 5876 5876 5876 5876 5876 5875 5875 5875 5875 5874 5874 5873 5873 5873 5873 5873 5872 5872 5873 5873 5873 5872 5872 5872 5872 5872 5873 5873 5873 5873 5872 5872 5873 5873 5873
5875 5875 5875 5875 5875 5875 5875 5875 5874 5874 5874 5874 5873 5873 5873 5873 5873 5872 5872 5872 5871 5871 5870 5870 5870 5870 5869 5869 5869 5869 5869 5869 5869 5869 5869 5869 5869 5869 5869 5869 5869 5869 5869
5874 5874 5874 5874 5873 5873 5873 5872 5872 5872 5872 5871 5871 5871 5871 5870 5870 5870 5870 5869 5869 5868 5868 5867 5867 5867 5866 5866 5866 5865 5865 5865 5865 5865 5865 5865 5864 5864 5864 5864 5864 5864 5864
5873 5873 5872 5872 5871 5871 5871 5870 5870 5869 5869 5869 5869 5868 5868 5868 5868 5867 5867 5867 5866 5865 5865 5864 5864 5863 5863 5862 5862 5862 5861 5861 5861 5860 5860 5860 5860 5859 5859 5859 5859 5859 5859
5871 5870 5870 5869 5869 5869 5868 5868 5867 5867 5867 5866 5866 5866 5866 5866 5865 5865 5864 5864 5863 5862 5862 5861 5860 5860 5859 5859 5858 5858 5857 5857 5856 5856 5855 5855 5855 5854 5854 5854 5854 5854 5853
5868 5867 5867 5867 5866 5866 5865 5865 5865 5864 5864 5864 5864 5864 5863 5863 5863 5862 5861 5861 5860 5859 5858 5858 5857 5856 5855 5855 5854 5853 5853 5852 5852 5851 5851 5850 5849 5849 5849 5848 5848 5848 5847
5864 5864 5864 5864 5863 5863 5862 5862 5862 5861 5861 5861 5861 5861 5860 5860 5859 5859 5858 5857 5857 5856 5855 5854 5853 5852 5851 5851 5850 5849 5848 5847 5847 5846 5845 5845 5844 5843 5842 5842 5841 5841 5841
5861 5860 5860 5860 5860 5859 5859 5858 5858 5858 5858 5858 5858 5857 5857 5857 5856 5855 5855 5854 5853 5852 5851 5850 5849 5848 5847 5846 5845 5844 5843 5842 5841 5840 5839 5838 5838 5837 5836 5835 5834 5833 5833
5858 5857 5856 5856 5856 5855 5855 5855 5855 5855 5855 5855 5854 5854 5854 5853 5852 5852 5851 5850 5849 5848 5847 5846 5845 5844 5843 5841 5840 5839 5838 5837 5836 5834 5833 5832 5831 5830 5829 5828 5827 5826 5825
5854 5853 5852 5852 5851 5851 5851 5851 5851 5851 5851 5851 5850 5850 5850 5849 5848 5848 5847 5846 5845 5844 5843 5842 5840 5839 5838 5837 5835 5834 5832 5831 5830 5828 5827 5825 5824 5823 5821 5820 5819 5818 5817
5851 5849 5848 5848 5847 5847 5847 5847 5847 5847 5846 5846 5846 5845 5845 5844 5844 5843 5842 5841 5840 5839 5838 5836 5835 5834 5832 5831 5830 5828 5827 5825 5823 5822 5820 5819 5817 5815 5814 5812 5811 5809 5808
5846 5845 5844 5843 5843 5843 5842 5842 5842 5842 5841 5841 5841 5840 5840 5839 5838 5837 5837 5835 5834 5833 5832 5831 5829 5828 5826 5825 5823 5822 5820 5818 5816 5815 5813 5811 5809 5807 5805 5803 5802 5800 5798
5841 5841 5840 5839 5838 5838 5837 5837 5837 5836 5835 5835 5835 5834 5834 5833 5832 5831 5830 5829 5828 5826 5825 5824 5822 5821 5819 5817 5816 5814 5812 5810 5808 5806 5804 5802 5800 5798 5796 5794 5791 5790 5788
5835 5835 5835 5834 5833 5832 5832 5831 5830 5830 5829 5829 5828 5828 5827 5826 5825 5824 5823 5822 5820 5819 5818 5816 5815 5813 5811 5809 5807 5806 5804 5802 5800 5797 5795 5793 5790 5788 5785 5783 5781 5778 5776
5829 5829 5828 5828 5827 5826 5825 5824 5823 5823 5822 5822 5821 5820 5819 5819 5817 5816 5815 5813 5811 5810 5809 5807 5806 5804 5802 5800 5798 5796 5794 5792 5790 5788 5785 5782 5780 5777 5774 5772 5769 5766 5764
5823 5822 5821 5821 5820 5819 5818 5817 5816 5815 5814 5814 5813 5811 5810 5809 5808 5807 5806 5804 5802 5800 5799 5798 5796 5794 5792 5790 5788 5785 5784 5782 5779 5777 5774 5771 5768 5765 5762 5759 5756 5753 5751
5817 5815 5814 5813 5812 5812 5811 5810 5809 5808 5807 5805 5804 5802 5801 5799 5798 5796 5796 5794 5792 5790 5789 5787 5785 5783 5781 5778 5776 5774 5772 5770 5767 5765 5762 5759 5756 5753 5749 5746 5743 5740 5737
5811 5809 5808 5806 5804 5803 5802 5802 5801 5800 5798 5797 5795 5793 5791 5789 5787 5786 5785 5783 5780 5779 5777 5775 5773 5771 5769 5766 5763 5762 5760 5757 5755 5752 5749 5745 5742 5739 5735 5731 5728 5725 5722
5805 5803 5801 5799 5797 5795 5794 5792 5791 5791 5790 5788 5787 5785 5782 5780 5777 5775 5773 5771 5768 5767 5765 5762 5760 5758 5756 5751 5749 5749 5747 5744 5742 5739 5734 5731 5728 5724 5720 5716 5713 5710 5707
5799 5797 5795 5793 5790 5788 5786 5784 5782 5781 5780 5778 5776 5774 5771 5769 5766 5764 5761 5759 5756 5754 5752 5750 5747 5744 5741 5738 5735 5732 5732 5732 5728 5724 5720 5717 5713 5709 5705 5701 5697 5694 5691
5792 5790 5787 5785 5783 5780 5778 5776 5773 5771 5769 5767 5764 5762 5760 5757 5755 5752 5750 5747 5744 5741 5739 5736 5732 5730 5727 5724 5720 5716 5714 5715 5713 5711 5707 5703 5698 5694 5690 5685 5681 5678 5675
5784 5782 5779 5777 5774 5771 5769 5766 5764 5761 5759 5756 5754 5751 5748 5746 5743 5740 5737 5734 5731 5728 5725 5722 5718 5715 5711 5709 5705 5702 5698 5695 5692 5692 5692 5688 5683 5678 5674 5669 5665 5661 5658
5775 5773 5770 5767 5765 5762 5760 5757 5754 5751 5749 5746 5743 5740 5736 5733 5730 5727 5724 5720 5717 5714 5711 5707 5703 5699 5696 5692 5689 5686 5682 5678 5674 5670 5671 5671 5666 5662 5657 5652 5649 5645 5641
5766 5764 5761 5758 5755 5753 5750 5747 5744 5740 5737 5734 5731 5727 5724 5721 5717 5713 5709 5706 5702 5699 5696 5691 5687 5683 5680 5676 5672 5668 5665 5661 5658 5652 5649 5649 5647 5644 5639 5635 5632 5628 5624